Total_Precipitation_Accumulation
0.66 0.65 0.71 0.82 0.87 0.93 0.92 0.84 0.78 0.77 0.78 0.87 0.98 1.00 0.99 0.99 0.95 0.93 0.89 0.88 0.88 0.88 0.92 0.98 0.96 0.94 1.00 0.96 0.89 0.86 0.86 0.96 0.96 0.50 0.38 0.42 0.61 0.81 0.86 0.87 0.91 0.86 0.80
0.62 0.72 0.70 0.75 0.87 0.90 0.84 0.81 0.84 0.81 0.80 0.83 0.92 1.05 1.08 1.06 1.02 1.01 0.99 1.03 1.09 1.05 0.99 1.01 1.04 1.05 1.09 1.07 1.05 0.96 0.85 0.80 0.88 0.72 0.50 0.53 0.65 0.82 0.88 0.91 0.97 0.95 0.87
0.52 0.67 0.76 0.79 0.85 0.91 0.86 0.78 0.83 0.87 0.85 0.85 0.93 1.07 1.15 1.16 1.13 1.05 1.04 1.08 1.18 1.26 1.23 1.21 1.15 1.15 1.16 1.11 1.12 1.07 0.96 0.86 0.83 0.84 0.67 0.61 0.69 0.80 0.92 1.00 1.03 1.03 1.02
0.39 0.55 0.66 0.76 0.83 0.87 0.89 0.87 0.85 0.85 0.87 0.88 0.89 0.97 1.09 1.20 1.28 1.28 1.29 1.24 1.25 1.29 1.31 1.33 1.30 1.31 1.27 1.23 1.22 1.17 1.13 1.12 1.06 1.05 0.93 0.80 0.78 0.82 0.99 1.17 1.24 1.11 1.09
0.30 0.40 0.56 0.66 0.77 0.85 0.89 0.92 0.94 0.95 0.88 0.88 0.89 0.88 0.96 1.22 1.58 1.56 1.48 1.42 1.29 1.20 1.15 1.16 1.23 1.38 1.44 1.51 1.55 1.45 1.41 1.49 1.45 1.38 1.21 1.05 0.96 1.01 1.11 1.20 1.40 1.33 1.22
0.30 0.32 0.43 0.59 0.72 0.80 0.87 0.95 0.97 0.98 0.98 0.94 0.91 0.88 0.90 1.11 1.54 1.61 1.34 1.14 1.01 1.00 0.99 0.93 0.95 1.15 1.25 1.38 1.52 1.55 1.61 1.75 1.81 1.74 1.50 1.28 1.04 1.00 1.11 1.32 1.52 1.68 1.60
0.22 0.25 0.32 0.45 0.63 0.75 0.82 0.90 1.02 1.03 1.01 1.00 0.92 0.87 0.82 0.89 1.28 1.40 1.21 0.94 0.81 0.78 0.80 0.81 0.81 0.89 1.03 1.04 1.20 1.30 1.38 1.54 1.74 1.83 1.78 1.39 1.13 1.03 1.27 1.47 1.54 1.66 1.57
0.20 0.19 0.23 0.31 0.45 0.61 0.77 0.87 0.97 1.07 1.07 1.02 0.95 0.88 0.84 0.79 1.13 1.33 1.20 0.88 0.74 0.67 0.67 0.66 0.66 0.72 0.86 1.03 1.15 1.18 1.13 1.23 1.50 1.68 1.82 1.63 1.41 1.34 1.55 1.83 1.98 2.02 1.84
0.18 0.18 0.18 0.21 0.31 0.47 0.62 0.75 0.85 0.97 1.01 1.00 0.95 0.87 0.84 0.82 1.02 1.36 1.34 0.96 0.79 0.67 0.65 0.65 0.61 0.60 0.85 1.08 1.11 1.08 0.99 1.02 1.20 1.48 1.69 1.78 1.82 1.91 2.04 2.33 2.52 2.50 2.35
0.16 0.16 0.16 0.18 0.23 0.35 0.47 0.61 0.77 0.89 0.95 0.96 0.97 0.90 0.85 0.81 0.95 1.34 1.53 1.09 0.88 0.76 0.69 0.67 0.74 0.78 0.95 1.02 0.98 1.05 1.09 0.99 0.97 1.06 1.17 1.29 1.38 1.53 1.83 2.08 2.29 2.42 2.40
0.17 0.16 0.14 0.15 0.19 0.27 0.42 0.55 0.73 0.85 0.95 0.95 0.91 0.91 0.83 0.80 0.83 1.13 1.55 1.31 1.00 0.88 0.83 0.76 0.73 0.86 0.91 0.96 1.00 1.02 1.16 1.07 1.01 1.11 1.12 1.09 1.14 1.28 1.46 1.72 2.04 2.28 2.41
0.16 0.17 0.15 0.15 0.17 0.25 0.40 0.54 0.67 0.83 0.96 0.97 0.91 0.94 0.93 0.86 0.85 1.04 1.32 1.36 1.15 0.93 0.85 0.74 0.74 0.87 0.93 0.99 0.99 1.07 1.15 1.12 1.05 1.07 1.02 1.00 1.05 1.15 1.29 1.49 1.75 1.96 2.06
0.16 0.16 0.17 0.17 0.19 0.25 0.36 0.52 0.71 0.82 0.94 1.00 0.91 0.91 0.97 0.97 0.98 1.16 1.20 1.22 1.19 1.05 1.02 1.03 0.95 0.98 1.00 0.94 0.98 1.01 1.01 0.98 1.04 1.04 0.95 0.88 0.92 1.04 1.15 1.30 1.47 1.68 1.83
0.19 0.17 0.18 0.21 0.25 0.27 0.36 0.47 0.66 0.82 0.93 1.03 0.96 0.89 0.92 1.02 1.17 1.33 1.26 1.16 1.20 1.18 1.16 1.16 1.12 1.09 1.01 0.95 0.94 0.88 0.84 0.90 0.94 0.93 0.86 0.79 0.79 0.91 1.06 1.20 1.37 1.55 1.80
0.20 0.20 0.20 0.24 0.29 0.33 0.39 0.48 0.59 0.72 0.94 1.12 1.04 0.97 1.06 1.23 1.35 1.51 1.41 1.29 1.30 1.32 1.26 1.20 1.10 1.08 1.07 0.98 0.87 0.80 0.79 0.83 0.84 0.78 0.78 0.79 0.81 0.89 0.98 1.10 1.32 1.48 1.66
0.24 0.23 0.25 0.30 0.31 0.33 0.42 0.52 0.63 0.70 0.80 0.86 0.96 1.02 1.00 1.23 1.31 1.26 1.24 1.18 1.23 1.33 1.26 1.17 0.98 0.90 0.90 0.86 0.83 0.79 0.75 0.74 0.72 0.72 0.77 0.80 0.84 0.91 0.96 1.03 1.23 1.42 1.51
0.30 0.29 0.32 0.33 0.31 0.33 0.40 0.52 0.65 0.72 0.79 0.83 0.86 0.94 0.99 1.13 1.19 1.19 1.18 1.10 1.06 1.06 1.03 0.92 0.82 0.77 0.73 0.71 0.73 0.71 0.69 0.67 0.70 0.75 0.76 0.74 0.78 0.85 0.91 0.97 1.10 1.24 1.34
0.33 0.36 0.39 0.37 0.35 0.37 0.44 0.54 0.66 0.77 0.85 0.88 0.92 0.99 1.04 1.08 1.12 1.18 1.22 1.20 1.16 1.04 0.89 0.84 0.82 0.77 0.72 0.70 0.70 0.71 0.68 0.68 0.73 0.76 0.75 0.71 0.73 0.81 0.85 0.88 0.95 1.08 1.20
0.35 0.38 0.42 0.44 0.42 0.42 0.47 0.56 0.66 0.74 0.80 0.86 0.93 1.11 1.21 1.21 1.20 1.22 1.20 1.07 0.98 0.91 0.86 0.82 0.82 0.85 0.83 0.78 0.73 0.72 0.74 0.72 0.71 0.76 0.74 0.70 0.71 0.77 0.80 0.81 0.87 1.00 1.10
0.35 0.44 0.49 0.50 0.48 0.49 0.53 0.61 0.69 0.77 0.80 0.84 0.89 0.98 1.17 1.27 1.24 1.26 1.18 1.04 0.93 0.86 0.82 0.81 0.80 0.83 0.87 0.85 0.82 0.80 0.80 0.77 0.76 0.77 0.72 0.68 0.69 0.73 0.77 0.78 0.83 0.87 0.91
0.40 0.43 0.50 0.51 0.51 0.55 0.60 0.66 0.73 0.81 0.82 0.82 0.83 0.90 1.11 1.15 1.08 1.04 1.09 1.08 1.00 0.90 0.84 0.84 0.82 0.83 0.85 0.84 0.82 0.81 0.82 0.79 0.75 0.74 0.69 0.64 0.65 0.72 0.73 0.74 0.74 0.74 0.78
0.43 0.46 0.50 0.52 0.56 0.62 0.67 0.71 0.78 0.83 0.82 0.82 0.84 0.91 1.01 0.90 0.86 0.88 0.95 1.00 1.00 0.95 0.87 0.89 0.87 0.83 0.84 0.85 0.85 0.84 0.84 0.79 0.73 0.70 0.67 0.63 0.63 0.67 0.67 0.66 0.64 0.64 0.69
0.46 0.51 0.56 0.57 0.59 0.68 0.72 0.69 0.75 0.81 0.83 0.83 0.84 0.87 0.91 0.90 0.87 0.85 0.90 0.94 0.97 0.96 0.91 0.91 0.89 0.83 0.79 0.79 0.82 0.87 0.89 0.82 0.72 0.70 0.72 0.67 0.64 0.63 0.61 0.58 0.54 0.56 0.63
0.49 0.55 0.62 0.65 0.66 0.67 0.72 0.74 0.76 0.82 0.87 0.86 0.84 0.84 0.89 0.91 0.90 0.87 0.87 0.89 0.93 0.93 0.88 0.89 0.88 0.81 0.76 0.74 0.74 0.76 0.77 0.77 0.75 0.74 0.73 0.72 0.66 0.59 0.57 0.56 0.51 0.52 0.59
0.54 0.58 0.65 0.71 0.74 0.75 0.77 0.78 0.79 0.84 0.89 0.87 0.86 0.85 0.85 0.88 0.90 0.89 0.86 0.86 0.88 0.86 0.80 0.81 0.86 0.85 0.76 0.71 0.68 0.68 0.75 0.79 0.81 0.85 0.91 0.88 0.73 0.59 0.56 0.55 0.53 0.53 0.58
0.55 0.59 0.67 0.73 0.76 0.79 0.83 0.85 0.84 0.85 0.88 0.86 0.85 0.86 0.86 0.89 0.92 0.90 0.87 0.87 0.91 0.87 0.80 0.79 0.80 0.79 0.74 0.71 0.69 0.70 0.72 0.73 0.79 0.87 0.97 1.02 0.85 0.67 0.61 0.59 0.55 0.56 0.59